���t,����,�O�C���x,�����t���O,�O�C���Ύ��x,�����t���O,���ԉ��x,�����t���O,���ԑ��Ύ��x,�����t���O,�g�C������,�����t���O,�L�b�`�����x,�����t���O,���ʏ����x,�����t���O,,,,,,,,
2003/1/1,0:00,5.6,0,56.0,0,13.4,0,61.1,0,11.9,0,10.8,0,9.2,0,,,,,,,,
2003/1/1,0:15,5.5,0,56.0,0,13.2,0,61.6,0,11.9,0,10.6,0,9.2,0,,,,,,,,
2003/1/1,0:30,5.7,0,56.0,0,13.1,0,60.5,0,11.9,0,10.5,0,9.1,0,,,,,,,,
2003/1/1,0:45,5.7,0,55.0,0,12.9,0,59.2,0,11.9,0,10.3,0,9.1,0,,,,,,,,
2003/1/1,1:00,5.5,0,55.0,0,12.8,0,59.6,0,11.9,0,10.2,0,9.3,0,,,,,,,,
2003/1/1,1:15,5.7,0,57.0,0,12.4,0,50.7,0,11.9,0,10.1,0,9.1,0,,,,,,,,
2003/1/1,1:30,5.7,0,59.0,0,12.4,0,54.1,0,11.9,0,9.8,0,9.0,0,,,,,,,,
2003/1/1,1:45,5.6,0,60.0,0,12.2,0,55.3,0,11.7,0,9.9,0,8.9,0,,,,,,,,
2003/1/1,2:00,5.6,0,59.0,0,12.1,0,57.3,0,11.7,0,10.0,0,8.9,0,,,,,,,,
2003/1/1,2:15,5.0,0,62.0,0,11.9,0,57.5,0,11.7,0,9.9,0,8.8,0,,,,,,,,
2003/1/1,2:30,4.8,0,61.0,0,11.6,0,57.7,0,11.7,0,9.6,0,8.7,0,,,,,,,,
2003/1/1,2:45,4.4,0,64.0,0,11.4,0,58.0,0,11.7,0,9.4,0,8.6,0,,,,,,,,
2003/1/1,3:00,4.1,0,67.0,0,11.1,0,58.2,0,12.1,0,9.2,0,8.5,0,,,,,,,,
2003/1/1,3:15,4.2,0,68.0,0,10.9,0,57.6,0,12.0,0,9.1,0,8.5,0,,,,,,,,
2003/1/1,3:30,4.4,0,65.0,0,10.7,0,57.8,0,12.0,0,9.0,0,8.5,0,,,,,,,,
2003/1/1,3:45,5.2,0,58.0,0,10.5,0,57.7,0,12.0,0,8.9,0,8.4,0
2003/1/1,4:00,5.3,0,58.0,0,10.3,0,57.6,0,12.0,0,8.7,0,8.3,0
2003/1/1,4:15,5.6,0,60.0,0,10.2,0,57.7,0,11.9,0,8.6,0,8.3,0
2003/1/1,4:30,5.6,0,60.0,0,10.0,0,57.5,0,11.9,0,8.6,0,8.3,0
2003/1/1,4:45,5.6,0,59.0,0,9.9,0,57.5,0,11.9,0,8.6,0,8.3,0
2003/1/1,5:00,5.7,0,60.0,0,9.9,0,57.4,0,11.9,0,8.6,0,8.3,0
2003/1/1,5:15,5.7,0,60.0,0,9.8,0,57.3,0,11.9,0,8.6,0,8.3,0
2003/1/1,5:30,5.7,0,61.0,0,9.7,0,57.3,0,11.9,0,8.6,0,8.3,0
2003/1/1,5:45,5.8,0,59.0,0,9.7,0,57.3,0,11.9,0,8.6,0,8.3,0
2003/1/1,6:00,5.8,0,58.0,0,9.6,0,57.2,0,11.9,0,8.6,0,8.3,0
2003/1/1,6:15,6.0,0,57.0,0,9.6,0,57.1,0,11.9,0,8.5,0,8.3,0
2003/1/1,6:30,5.9,0,57.0,0,9.5,0,57.0,0,11.8,0,8.5,0,8.3,0
2003/1/1,6:45,5.9,0,58.0,0,9.5,0,57.0,0,11.8,0,8.5,0,8.3,0
2003/1/1,7:00,5.7,0,58.0,0,9.4,0,56.9,0,11.8,0,8.5,0,8.2,0
2003/1/1,7:15,5.4,0,59.0,0,9.3,0,57.0,0,11.8,0,8.4,0,8.2,0
2003/1/1,7:30,5.2,0,61.0,0,9.2,0,56.9,0,11.8,0,8.3,0,8.1,0
2003/1/1,7:45,5.2,0,63.0,0,9.2,0,57.1,0,11.8,0,8.2,0,8.0,0
2003/1/1,8:00,5.5,0,62.0,0,9.1,0,57.0,0,11.8,0,8.1,0,8.0,0
2003/1/1,8:15,5.9,0,60.0,0,9.1,0,56.9,0,11.7,0,8.2,0,8.0,0
2003/1/1,8:30,6.4,0,60.0,0,9.2,0,56.7,0,11.7,0,8.2,0,8.1,0
2003/1/1,8:45,7.3,0,54.0,0,9.2,0,56.5,0,11.7,0,8.3,0,8.1,0
2003/1/1,9:00,8.2,0,51.0,0,9.3,0,56.7,0,11.7,0,8.4,0,8.2,0
2003/1/1,9:15,8.8,0,49.0,0,9.5,0,56.4,0,11.7,0,8.5,0,8.3,0
2003/1/1,9:30,9.5,0,46.0,0,9.7,0,55.9,0,11.7,0,8.7,0,8.4,0
2003/1/1,9:45,9.5,0,45.0,0,10.3,0,57.8,0,11.7,0,9.0,0,8.5,0
2003/1/1,10:00,10.3,0,45.0,0,11.5,0,57.1,0,11.6,0,10.4,0,8.6,0
2003/1/1,10:15,10.0,0,46.0,0,12.5,0,56.1,0,11.6,0,11.4,0,8.7,0
2003/1/1,10:30,9.9,0,44.0,0,12.5,0,48.8,0,11.6,0,12.0,0,9.0,0
2003/1/1,10:45,10.2,0,43.0,0,13.6,0,52.6,0,11.3,0,12.3,0,9.2,0
2003/1/1,11:00,10.3,0,39.0,0,13.7,0,49.0,0,11.5,0,11.8,0,9.3,0
2003/1/1,11:15,10.3,0,44.0,0,14.1,0,50.7,0,11.7,0,11.8,0,10.3,0
2003/1/1,11:30,10.3,0,46.0,0,14.3,0,52.5,0,11.7,0,11.9,0,10.9,0
2003/1/1,11:45,10.5,0,43.0,0,14.4,0,51.4,0,11.7,0,12.2,0,10.7,0
2003/1/1,12:00,10.1,0,46.0,0,14.6,0,52.2,0,11.7,0,12.5,0,10.4,0
2003/1/1,12:15,8.8,0,51.0,0,14.6,0,52.2,0,11.7,0,12.5,0,9.9,0
2003/1/1,12:30,8.6,0,50.0,0,14.6,0,52.4,0,11.7,0,12.2,0,9.6,0
2003/1/1,12:45,9.2,0,46.0,0,14.6,0,52.4,0,11.7,0,12.0,0,9.5,0
2003/1/1,13:00,9.5,0,44.0,0,14.8,0,51.7,0,11.7,0,12.1,0,9.7,0
2003/1/1,13:15,9.7,0,44.0,0,15.0,0,51.6,0,11.7,0,12.3,0,9.9,0
2003/1/1,13:30,9.0,0,44.0,0,15.2,0,51.2,0,11.7,0,12.5,0,9.9,0
2003/1/1,13:45,8.6,0,48.0,0,15.2,0,50.7,0,11.7,0,12.4,0,9.8,0
2003/1/1,14:00,8.8,0,47.0,0,15.1,0,50.8,0,11.7,0,12.3,0,9.7,0
2003/1/1,14:15,8.7,0,46.0,0,15.3,0,50.4,0,11.7,0,12.3,0,9.7,0
2003/1/1,14:30,8.4,0,48.0,0,15.3,0,50.2,0,11.7,0,12.3,0,9.5,0
2003/1/1,14:45,8.2,0,48.0,0,15.2,0,50.1,0,11.7,0,12.2,0,9.6,0
2003/1/1,15:00,8.5,0,48.0,0,15.2,0,49.9,0,11.7,0,12.2,0,9.5,0
2003/1/1,15:15,8.9,0,44.0,0,15.3,0,49.6,0,11.7,0,12.3,0,9.6,0
2003/1/1,15:30,8.4,0,42.0,0,15.6,0,49.2,0,11.8,0,12.3,0,9.6,0
2003/1/1,15:45,8.7,0,43.0,0,15.6,0,48.6,0,11.8,0,12.2,0,9.6,0
2003/1/1,16:00,8.3,0,42.0,0,15.5,0,48.6,0,11.8,0,12.3,0,9.5,0
2003/1/1,16:15,8.0,0,43.0,0,15.3,0,48.6,0,11.8,0,12.1,0,9.4,0
2003/1/1,16:30,7.6,0,45.0,0,15.1,0,48.8,0,11.8,0,12.1,0,9.3,0
2003/1/1,16:45,7.4,0,46.0,0,14.8,0,48.8,0,11.8,0,11.8,0,9.1,0
2003/1/1,17:00,7.3,0,47.0,0,14.5,0,48.9,0,11.9,0,11.6,0,8.9,0
2003/1/1,17:15,7.0,0,48.0,0,14.3,0,48.9,0,11.9,0,11.3,0,8.7,0
2003/1/1,17:30,7.0,0,50.0,0,14.0,0,49.0,0,11.9,0,11.1,0,8.6,0
2003/1/1,17:45,6.6,0,47.0,0,13.8,0,49.1,0,11.9,0,10.9,0,8.4,0
2003/1/1,18:00,6.4,0,48.0,0,13.5,0,49.1,0,11.9,0,10.6,0,8.2,0
2003/1/1,18:15,6.1,0,49.0,0,13.2,0,49.3,0,12.0,0,10.4,0,8.0,0
2003/1/1,18:30,6.0,0,48.0,0,13.4,0,51.9,0,12.2,0,10.6,0,7.9,0
2003/1/1,18:45,5.9,0,46.0,0,14.1,0,55.4,0,12.2,0,12.1,0,7.8,0
2003/1/1,19:00,6.0,0,46.0,0,14.6,0,57.6,0,12.2,0,13.0,0,7.6,0
2003/1/1,19:15,6.0,0,49.0,0,15.3,0,58.6,0,12.2,0,13.7,0,7.5,0
2003/1/1,19:30,6.1,0,49.0,0,15.8,0,59.4,0,12.1,0,14.2,0,7.6,0
2003/1/1,19:45,6.3,0,49.0,0,16.3,0,59.1,0,12.1,0,14.5,0,8.2,0
2003/1/1,20:00,6.4,0,49.0,0,16.4,0,55.0,0,12.2,0,13.8,0,8.5,0
2003/1/1,20:15,6.4,0,48.0,0,16.2,0,51.2,0,12.2,0,13.1,0,8.7,0
2003/1/1,20:30,6.4,0,47.0,0,15.6,0,49.4,0,12.2,0,12.4,0,8.8,0
2003/1/1,20:45,6.4,0,46.0,0,15.2,0,49.6,0,12.2,0,11.9,0,8.9,0
2003/1/1,21:00,6.6,0,47.0,0,14.9,0,51.4,0,11.8,0,11.9,0,8.9,0
2003/1/1,21:15,6.6,0,43.0,0,14.8,0,52.2,0,11.8,0,11.9,0,9.0,0
2003/1/1,21:30,6.6,0,41.0,0,14.6,0,53.7,0,11.8,0,12.0,0,9.0,0
2003/1/1,21:45,6.7,0,37.0,0,14.4,0,54.4,0,11.9,0,11.8,0,9.1,0
2003/1/1,22:00,6.5,0,37.0,0,14.3,0,54.7,0,11.9,0,11.7,0,9.3,0
2003/1/1,22:15,6.4,0,42.0,0,14.1,0,55.3,0,11.9,0,11.5,0,9.3,0
2003/1/1,22:30,6.2,0,42.0,0,14.0,0,56.2,0,11.9,0,11.3,0,9.2,0
2003/1/1,22:45,6.0,0,43.0,0,13.9,0,56.8,0,11.6,0,11.2,0,9.2,0
2003/1/1,23:00,5.9,0,44.0,0,13.7,0,56.9,0,11.7,0,11.1,0,9.1,0
2003/1/1,23:15,5.7,0,43.0,0,13.5,0,57.1,0,11.7,0,10.9,0,9.0,0
2003/1/1,23:30,5.8,0,40.0,0,13.8,0,58.7,0,11.7,0,11.3,0,9.1,0
2003/1/1,23:45,5.7,0,39.0,0,13.6,0,58.1,0,11.6,0,11.3,0,9.0,0
2003/1/2,0:00,5.7,0,39.0,0,13.4,0,58.2,0,11.6,0,11.0,0,9.0,0
2003/1/2,0:15,5.6,0,41.0,0,13.2,0,58.1,0,11.6,0,10.7,0,9.0,0
2003/1/2,0:30,5.5,0,40.0,0,13.0,0,58.0,0,11.8,0,10.6,0,8.9,0
2003/1/2,0:45,5.5,0,35.0,0,12.9,0,58.1,0,11.7,0,10.5,0,9.1,0
2003/1/2,1:00,5.3,0,36.0,0,12.7,0,57.9,0,11.8,0,10.3,0,9.0,0
2003/1/2,1:15,5.3,0,39.0,0,12.4,0,56.8,0,11.8,0,10.0,0,8.8,0
2003/1/2,1:30,5.3,0,44.0,0,12.2,0,56.5,0,11.8,0,9.8,0,8.7,0
2003/1/2,1:45,5.3,0,43.0,0,12.0,0,56.2,0,11.8,0,9.7,0,8.7,0
2003/1/2,2:00,5.3,0,45.0,0,11.7,0,55.8,0,11.5,0,9.4,0,8.6,0
2003/1/2,2:15,5.3,0,44.0,0,11.5,0,55.6,0,11.5,0,9.4,0,8.5,0
2003/1/2,2:30,5.1,0,46.0,0,11.3,0,55.5,0,11.4,0,9.2,0,8.5,0
2003/1/2,2:45,5.2,0,46.0,0,11.1,0,55.5,0,11.5,0,9.1,0,8.4,0
2003/1/2,3:00,5.0,0,46.0,0,11.0,0,55.5,0,11.5,0,9.1,0,8.3,0
2003/1/2,3:15,4.9,0,47.0,0,10.8,0,55.6,0,11.5,0,9.0,0,8.3,0
2003/1/2,3:30,5.0,0,49.0,0,10.7,0,55.6,0,11.5,0,9.0,0,8.2,0
2003/1/2,3:45,5.0,0,49.0,0,10.5,0,55.5,0,11.5,0,8.8,0,8.2,0
2003/1/2,4:00,5.2,0,49.0,0,10.4,0,55.5,0,11.5,0,8.8,0,8.1,0
2003/1/2,4:15,5.3,0,50.0,0,10.2,0,55.5,0,11.5,0,8.7,0,8.1,0
2003/1/2,4:30,5.3,0,50.0,0,10.1,0,55.4,0,11.5,0,8.6,0,8.1,0
2003/1/2,4:45,5.2,0,50.0,0,10.0,0,55.4,0,11.5,0,8.6,0,8.1,0
2003/1/2,5:00,4.8,0,53.0,0,9.9,0,55.4,0,11.5,0,8.5,0,8.0,0
2003/1/2,5:15,4.4,0,57.0,0,9.8,0,55.4,0,11.5,0,8.4,0,8.0,0
2003/1/2,5:30,4.5,0,59.0,0,9.7,0,55.4,0,11.5,0,8.3,0,7.9,0
2003/1/2,5:45,4.8,0,61.0,0,9.7,0,55.5,0,11.5,0,8.3,0,7.9,0
2003/1/2,6:00,4.4,0,61.0,0,9.6,0,55.5,0,11.4,0,8.3,0,7.9,0
2003/1/2,6:15,4.1,0,62.0,0,9.5,0,55.4,0,11.4,0,8.2,0,7.9,0
2003/1/2,6:30,3.9,0,61.0,0,9.4,0,55.5,0,11.4,0,8.2,0,7.8,0
2003/1/2,6:45,3.3,0,61.0,0,9.4,0,55.5,0,11.4,0,8.1,0,7.7,0
2003/1/2,7:00,3.1,0,65.0,0,9.3,0,55.5,0,11.4,0,8.0,0,7.6,0
2003/1/2,7:15,3.0,0,67.0,0,9.2,0,55.5,0,11.4,0,7.9,0,7.5,0
2003/1/2,7:30,2.8,0,71.0,0,9.1,0,55.5,0,11.4,0,7.7,0,7.3,0
2003/1/2,7:45,2.6,0,77.0,0,9.0,0,55.5,0,11.4,0,7.6,0,7.1,0
2003/1/2,8:00,2.8,0,84.0,0,8.9,0,55.5,0,11.4,0,7.5,0,7.0,0
2003/1/2,8:15,3.6,0,85.0,0,8.9,0,57.4,0,10.9,0,8.0,0,7.5,0
2003/1/2,8:30,4.2,0,83.0,0,9.3,0,58.5,0,10.9,0,8.5,0,7.8,0
2003/1/2,8:45,4.5,0,81.0,0,9.9,0,60.4,0,11.3,0,8.8,0,7.9,0
2003/1/2,9:00,4.4,0,80.0,0,10.7,0,61.2,0,12.2,0,9.3,0,7.9,0
2003/1/2,9:15,4.5,0,79.0,0,11.5,0,62.1,0,12.2,0,10.0,0,8.3,0
2003/1/2,9:30,5.0,0,77.0,0,12.2,0,64.1,0,12.2,0,10.9,0,8.4,0
2003/1/2,9:45,5.8,0,76.0,0,13.0,0,64.5,0,12.1,0,12.1,0,9.1,0
2003/1/2,10:00,5.8,0,73.0,0,13.8,0,66.2,0,12.1,0,12.9,0,9.2,0
2003/1/2,10:15,6.7,0,72.0,0,13.9,0,64.1,0,11.7,0,12.9,0,9.2,0
2003/1/2,10:30,7.9,0,69.0,0,13.8,0,63.2,0,11.7,0,12.5,0,9.3,0
2003/1/2,10:45,8.7,0,65.0,0,13.9,0,61.8,0,11.7,0,12.3,0,9.5,0
2003/1/2,11:00,8.7,0,60.0,0,14.0,0,61.2,0,11.7,0,12.3,0,9.6,0
2003/1/2,11:15,8.9,0,54.0,0,14.2,0,60.5,0,11.7,0,12.1,0,9.7,0
2003/1/2,11:30,9.0,0,53.0,0,14.4,0,59.9,0,11.6,0,12.0,0,9.8,0
2003/1/2,11:45,9.0,0,50.0,0,14.7,0,59.0,0,11.6,0,12.0,0,9.9,0
2003/1/2,12:00,9.3,0,50.0,0,14.9,0,58.2,0,11.6,0,11.9,0,10.0,0
2003/1/2,12:15,9.7,0,45.0,0,15.0,0,57.6,0,11.6,0,12.2,0,10.2,0
2003/1/2,12:30,9.5,0,45.0,0,15.2,0,57.0,0,11.6,0,12.5,0,10.4,0
2003/1/2,12:45,8.7,0,46.0,0,15.0,0,56.6,0,11.6,0,12.4,0,10.4,0
2003/1/2,13:00,8.6,0,45.0,0,14.8,0,56.4,0,11.6,0,12.4,0,10.4,0
2003/1/2,13:15,8.7,0,46.0,0,14.6,0,56.0,0,11.6,0,12.3,0,10.4,0
2003/1/2,13:30,8.7,0,46.0,0,14.5,0,56.1,0,11.6,0,12.2,0,10.4,0
2003/1/2,13:45,8.6,0,47.0,0,14.4,0,56.1,0,11.6,0,12.1,0,10.4,0
2003/1/2,14:00,8.7,0,46.0,0,14.2,0,55.5,0,11.6,0,12.0,0,10.3,0
2003/1/2,14:15,8.6,0,47.0,0,14.1,0,55.6,0,11.6,0,11.9,0,10.3,0
2003/1/2,14:30,8.6,0,46.0,0,14.0,0,55.3,0,11.6,0,11.8,0,10.2,0
2003/1/2,14:45,8.6,0,45.0,0,13.9,0,56.5,0,11.6,0,11.7,0,10.2,0
2003/1/2,15:00,8.4,0,47.0,0,13.8,0,54.9,0,11.3,0,11.5,0,10.2,0
2003/1/2,15:15,8.4,0,48.0,0,13.6,0,55.0,0,11.3,0,11.5,0,10.4,0
2003/1/2,15:30,8.3,0,48.0,0,13.5,0,55.3,0,11.3,0,11.4,0,10.3,0
2003/1/2,15:45,8.4,0,48.0,0,13.4,0,55.3,0,11.3,0,11.3,0,10.3,0
2003/1/2,16:00,8.2,0,49.0,0,13.2,0,55.3,0,11.3,0,11.1,0,10.2,0
2003/1/2,16:15,8.2,0,48.0,0,13.1,0,54.9,0,11.3,0,11.0,0,10.1,0
2003/1/2,16:30,8.0,0,49.0,0,12.9,0,54.9,0,11.3,0,10.9,0,10.1,0
2003/1/2,16:45,7.7,0,50.0,0,12.8,0,54.6,0,11.3,0,10.8,0,10.0,0
2003/1/2,17:00,7.5,0,50.0,0,12.6,0,54.6,0,11.3,0,10.5,0,9.9,0
2003/1/2,17:15,7.1,0,52.0,0,12.4,0,54.8,0,11.4,0,10.2,0,9.8,0
2003/1/2,17:30,6.8,0,54.0,0,12.2,0,54.8,0,11.4,0,10.0,0,9.6,0
2003/1/2,17:45,6.5,0,56.0,0,12.0,0,54.9,0,11.4,0,9.8,0,9.5,0
2003/1/2,18:00,6.4,0,56.0,0,11.8,0,55.2,0,11.4,0,9.7,0,9.3,0
2003/1/2,18:15,6.2,0,58.0,0,11.7,0,55.0,0,11.3,0,9.5,0,9.2,0
2003/1/2,18:30,6.0,0,59.0,0,12.4,0,58.5,0,11.3,0,10.6,0,9.6,0
2003/1/2,18:45,5.9,0,58.0,0,13.1,0,60.5,0,11.3,0,11.8,0,9.9,0
2003/1/2,19:00,5.7,0,60.0,0,13.8,0,61.8,0,11.3,0,12.6,0,10.3,0
2003/1/2,19:15,5.7,0,60.0,0,14.4,0,62.9,0,11.3,0,13.2,0,10.7,0
2003/1/2,19:30,6.0,0,58.0,0,14.9,0,62.9,0,11.3,0,13.6,0,11.0,0
2003/1/2,19:45,5.7,0,60.0,0,15.4,0,63.4,0,11.4,0,14.0,0,11.3,0
2003/1/2,20:00,5.7,0,60.0,0,15.8,0,63.1,0,11.4,0,14.4,0,11.6,0
2003/1/2,20:15,5.3,0,62.0,0,16.3,0,62.9,0,11.4,0,14.7,0,11.8,0
2003/1/2,20:30,5.3,0,63.0,0,16.4,0,60.8,0,11.2,0,14.6,0,11.6,0
2003/1/2,20:45,5.3,0,66.0,0,15.9,0,59.3,0,11.2,0,13.7,0,11.0,0
2003/1/2,21:00,5.0,0,69.0,0,15.4,0,58.7,0,11.2,0,13.0,0,10.6,0
2003/1/2,21:15,4.8,0,71.0,0,15.0,0,58.3,0,11.2,0,12.5,0,10.2,0
2003/1/2,21:30,4.8,0,71.0,0,15.2,0,60.7,0,11.3,0,12.4,0,10.0,0
2003/1/2,21:45,4.7,0,72.0,0,15.9,0,63.2,0,11.3,0,12.8,0,9.8,0
2003/1/2,22:00,4.7,0,73.0,0,16.2,0,60.3,0,11.4,0,12.8,0,9.5,0
2003/1/2,22:15,4.6,0,74.0,0,15.7,0,56.6,0,11.4,0,12.0,0,9.2,0
2003/1/2,22:30,4.5,0,71.0,0,15.1,0,55.0,0,11.4,0,11.3,0,9.0,0
2003/1/2,22:45,4.8,0,69.0,0,14.7,0,54.6,0,11.4,0,10.8,0,8.8,0
2003/1/2,23:00,4.7,0,69.0,0,14.4,0,53.8,0,11.3,0,10.4,0,8.6,0
2003/1/2,23:15,4.3,0,71.0,0,14.1,0,54.5,0,11.4,0,10.2,0,8.9,0
2003/1/2,23:30,4.2,0,72.0,0,13.9,0,55.0,0,11.4,0,10.1,0,8.8,0
2003/1/2,23:45,4.3,0,71.0,0,13.7,0,55.6,0,11.4,0,10.0,0,9.0,0
2003/1/3,0:00,4.5,0,71.0,0,13.5,0,56.1,0,11.6,0,9.9,0,8.9,0
2003/1/3,0:15,4.4,0,71.0,0,13.3,0,56.1,0,11.5,0,9.8,0,9.0,0
2003/1/3,0:30,4.3,0,71.0,0,13.1,0,56.4,0,11.7,0,9.7,0,9.6,0
2003/1/3,0:45,4.1,0,71.0,0,12.9,0,56.9,0,11.7,0,9.5,0,9.7,0
2003/1/3,1:00,4.0,0,72.0,0,12.6,0,56.9,0,11.7,0,9.4,0,9.5,0
2003/1/3,1:15,4.2,0,73.0,0,12.4,0,57.2,0,11.7,0,9.2,0,9.3,0
2003/1/3,1:30,4.2,0,70.0,0,12.2,0,57.3,0,11.6,0,9.1,0,9.1,0
2003/1/3,1:45,4.4,0,70.0,0,12.1,0,57.4,0,11.6,0,9.1,0,9.0,0
2003/1/3,2:00,4.6,0,70.0,0,11.9,0,57.4,0,11.6,0,9.0,0,8.8,0
2003/1/3,2:15,4.8,0,68.0,0,11.7,0,57.4,0,11.6,0,8.9,0,8.6,0
2003/1/3,2:30,4.8,0,68.0,0,11.5,0,57.5,0,11.6,0,8.8,0,8.5,0
2003/1/3,2:45,4.6,0,69.0,0,11.4,0,57.7,0,11.6,0,8.8,0,8.4,0
2003/1/3,3:00,4.4,0,70.0,0,11.3,0,57.8,0,11.6,0,8.7,0,8.3,0
2003/1/3,3:15,4.5,0,71.0,0,11.1,0,57.8,0,11.6,0,8.7,0,8.3,0
2003/1/3,3:30,4.5,0,70.0,0,11.0,0,57.8,0,11.6,0,8.6,0,8.2,0
2003/1/3,3:45,4.7,0,70.0,0,10.9,0,57.9,0,11.6,0,8.5,0,8.1,0
2003/1/3,4:00,4.8,0,68.0,0,10.7,0,58.0,0,11.5,0,8.5,0,8.1,0
2003/1/3,4:15,4.8,0,68.0,0,10.6,0,57.8,0,11.5,0,8.4,0,8.0,0
2003/1/3,4:30,4.9,0,67.0,0,10.5,0,57.8,0,11.5,0,8.4,0,8.0,0
2003/1/3,4:45,4.8,0,68.0,0,10.3,0,57.8,0,11.5,0,8.4,0,8.0,0
2003/1/3,5:00,4.9,0,70.0,0,10.2,0,57.8,0,11.5,0,8.3,0,7.9,0
2003/1/3,5:15,4.9,0,70.0,0,10.1,0,57.8,0,11.5,0,8.2,0,7.9,0
2003/1/3,5:30,4.9,0,70.0,0,10.0,0,57.8,0,11.4,0,8.2,0,7.8,0
2003/1/3,5:45,4.9,0,70.0,0,9.9,0,57.7,0,11.4,0,8.1,0,7.7,0
2003/1/3,6:00,4.9,0,71.0,0,9.8,0,57.7,0,11.4,0,8.0,0,7.7,0
2003/1/3,6:15,4.8,0,72.0,0,9.8,0,57.7,0,11.4,0,8.0,0,7.6,0
2003/1/3,6:30,4.8,0,73.0,0,9.7,0,57.6,0,11.4,0,7.9,0,7.6,0
2003/1/3,6:45,4.8,0,75.0,0,9.6,0,57.6,0,11.4,0,7.9,0,7.5,0
2003/1/3,7:00,4.7,0,77.0,0,9.5,0,57.6,0,11.3,0,7.8,0,7.5,0
2003/1/3,7:15,4.7,0,80.0,0,9.5,0,57.6,0,11.3,0,7.7,0,7.4,0
2003/1/3,7:30,4.8,0,80.0,0,9.4,0,57.7,0,11.3,0,7.7,0,7.3,0
2003/1/3,7:45,5.2,0,79.0,0,9.3,0,57.7,0,11.3,0,7.6,0,7.3,0
2003/1/3,8:00,5.1,0,80.0,0,9.3,0,57.8,0,11.3,0,7.6,0,7.3,0
2003/1/3,8:15,5.1,0,81.0,0,9.2,0,57.8,0,11.2,0,7.6,0,7.3,0
2003/1/3,8:30,5.3,0,81.0,0,9.2,0,57.9,0,11.0,0,7.6,0,7.8,0
2003/1/3,8:45,5.3,0,81.0,0,9.2,0,57.9,0,11.0,0,7.6,0,8.3,0
2003/1/3,9:00,5.5,0,82.0,0,9.2,0,58.0,0,11.0,0,7.6,0,8.2,0
2003/1/3,9:15,5.7,0,83.0,0,9.2,0,58.0,0,11.0,0,7.7,0,8.0,0
2003/1/3,9:30,6.0,0,84.0,0,9.2,0,57.9,0,11.0,0,7.7,0,7.9,0
2003/1/3,9:45,6.1,0,86.0,0,9.1,0,57.9,0,11.0,0,7.8,0,7.9,0
2003/1/3,10:00,6.4,0,88.0,0,9.2,0,58.4,0,11.1,0,7.9,0,7.9,0
2003/1/3,10:15,6.6,0,89.0,0,10.0,0,62.7,0,11.3,0,8.6,0,7.9,0
2003/1/3,10:30,6.8,0,91.0,0,10.7,0,62.8,0,11.3,0,9.1,0,8.0,0
2003/1/3,10:45,7.0,0,91.0,0,11.1,0,62.4,0,11.3,0,9.4,0,8.1,0
2003/1/3,11:00,7.3,0,91.0,0,11.6,0,63.8,0,11.2,0,9.7,0,8.1,0
2003/1/3,11:15,7.6,0,90.0,0,12.3,0,68.3,0,11.2,0,10.4,0,8.3,0
2003/1/3,11:30,7.6,0,90.0,0,12.8,0,67.6,0,11.3,0,10.8,0,8.4,0
2003/1/3,11:45,7.8,0,90.0,0,13.0,0,66.5,0,11.3,0,11.1,0,8.4,0
2003/1/3,12:00,7.9,0,90.0,0,13.5,0,68.4,0,11.3,0,11.6,0,8.5,0
2003/1/3,12:15,8.1,0,89.0,0,14.2,0,71.8,0,11.3,0,12.4,0,8.8,0
2003/1/3,12:30,8.1,0,90.0,0,14.9,0,73.8,0,11.3,0,12.9,0,9.2,0
2003/1/3,12:45,8.2,0,90.0,0,15.5,0,72.0,0,11.3,0,13.2,0,8.7,0
2003/1/3,13:00,8.2,0,90.0,0,15.7,0,70.9,0,11.3,0,13.2,0,8.6,0
2003/1/3,13:15,8.1,0,91.0,0,15.6,0,69.0,0,11.3,0,12.9,0,8.8,0
2003/1/3,13:30,8.1,0,91.0,0,15.3,0,68.2,0,11.3,0,12.6,0,8.8,0
2003/1/3,13:45,8.2,0,91.0,0,14.9,0,67.8,0,11.2,0,12.2,0,8.8,0
2003/1/3,14:00,8.2,0,91.0,0,14.7,0,67.6,0,11.2,0,11.9,0,8.8,0
2003/1/3,14:15,8.2,0,91.0,0,14.8,0,67.6,0,11.0,0,12.1,0,8.5,0
2003/1/3,14:30,8.2,0,92.0,0,15.0,0,67.9,0,11.0,0,12.5,0,8.6,0
2003/1/3,14:45,8.2,0,92.0,0,15.6,0,68.8,0,11.0,0,13.2,0,8.7,0
2003/1/3,15:00,8.2,0,92.0,0,16.1,0,69.4,0,11.0,0,13.7,0,8.8,0
2003/1/3,15:15,8.3,0,91.0,0,16.6,0,69.5,0,11.0,0,14.1,0,8.9,0
2003/1/3,15:30,8.4,0,91.0,0,17.1,0,69.3,0,11.0,0,14.5,0,9.0,0
2003/1/3,15:45,8.4,0,91.0,0,17.5,0,69.1,0,11.0,0,14.6,0,9.0,0
2003/1/3,16:00,8.5,0,92.0,0,17.3,0,67.7,0,11.0,0,14.0,0,9.0,0
2003/1/3,16:15,8.5,0,92.0,0,17.0,0,67.1,0,11.0,0,13.6,0,9.0,0
2003/1/3,16:30,8.5,0,93.0,0,16.7,0,66.7,0,10.8,0,13.3,0,9.0,0
2003/1/3,16:45,8.4,0,93.0,0,16.5,0,66.6,0,10.8,0,13.1,0,9.1,0
2003/1/3,17:00,7.9,0,92.0,0,16.2,0,66.2,0,10.8,0,12.9,0,9.1,0
2003/1/3,17:15,7.8,0,92.0,0,16.0,0,65.7,0,10.9,0,12.6,0,9.0,0
2003/1/3,17:30,7.6,0,92.0,0,15.7,0,65.8,0,10.9,0,12.4,0,8.9,0
2003/1/3,17:45,7.6,0,92.0,0,15.5,0,65.7,0,10.9,0,12.2,0,8.8,0
2003/1/3,18:00,7.5,0,89.0,0,15.5,0,66.0,0,11.8,0,12.1,0,8.8,0
2003/1/3,18:15,7.4,0,87.0,0,15.8,0,67.2,0,11.8,0,12.8,0,8.7,0
2003/1/3,18:30,7.6,0,83.0,0,16.3,0,68.0,0,11.8,0,13.4,0,9.0,0
2003/1/3,18:45,7.6,0,80.0,0,16.6,0,65.7,0,11.8,0,13.3,0,8.8,0
2003/1/3,19:00,7.5,0,74.0,0,16.3,0,64.7,0,11.8,0,12.9,0,8.6,0
2003/1/3,19:15,7.4,0,68.0,0,15.9,0,63.9,0,11.8,0,12.4,0,8.5,0
2003/1/3,19:30,7.2,0,64.0,0,15.5,0,63.3,0,11.8,0,12.1,0,8.3,0
2003/1/3,19:45,7.2,0,60.0,0,15.2,0,62.7,0,11.8,0,11.7,0,8.2,0
2003/1/3,20:00,7.0,0,60.0,0,14.9,0,62.2,0,11.7,0,11.5,0,8.1,0
2003/1/3,20:15,6.9,0,58.0,0,14.7,0,61.6,0,11.7,0,11.3,0,7.9,0
2003/1/3,20:30,6.7,0,55.0,0,14.5,0,61.2,0,11.7,0,11.1,0,7.8,0
2003/1/3,20:45,6.7,0,55.0,0,14.6,0,62.7,0,11.7,0,11.2,0,7.8,0
2003/1/3,21:00,6.7,0,57.0,0,14.8,0,61.7,0,11.7,0,11.5,0,7.4,0
2003/1/3,21:15,6.7,0,55.0,0,14.9,0,60.4,0,11.7,0,11.8,0,7.2,0
2003/1/3,21:30,6.4,0,53.0,0,15.1,0,60.0,0,11.7,0,12.0,0,7.0,0
2003/1/3,21:45,6.1,0,53.0,0,15.3,0,59.3,0,11.7,0,12.2,0,6.9,0
2003/1/3,22:00,5.9,0,56.0,0,15.4,0,58.8,0,11.7,0,12.1,0,6.6,0
2003/1/3,22:15,5.9,0,53.0,0,15.6,0,57.7,0,11.6,0,12.3,0,6.7,0
2003/1/3,22:30,5.7,0,56.0,0,16.1,0,58.4,0,11.6,0,12.9,0,6.8,0
2003/1/3,22:45,5.7,0,55.0,0,16.6,0,59.6,0,11.6,0,13.3,0,6.8,0
2003/1/3,23:00,5.5,0,54.0,0,17.0,0,60.4,0,11.6,0,13.5,0,6.7,0
2003/1/3,23:15,5.4,0,51.0,0,17.4,0,60.8,0,11.2,0,13.7,0,6.5,0
2003/1/3,23:30,5.3,0,49.0,0,17.2,0,55.6,0,11.2,0,12.8,0,6.3,0
2003/1/3,23:45,5.2,0,52.0,0,16.8,0,55.9,0,11.4,0,12.2,0,6.4,0
2003/1/4,0:00,5.0,0,51.0,0,16.4,0,55.7,0,11.4,0,11.8,0,7.2,0
2003/1/4,0:15,5.0,0,51.0,0,16.0,0,55.4,0,11.4,0,11.5,0,7.7,0
2003/1/4,0:30,5.0,0,53.0,0,15.7,0,55.6,0,11.3,0,11.2,0,8.1,0
2003/1/4,0:45,4.9,0,53.0,0,15.5,0,55.9,0,11.3,0,11.0,0,8.4,0
2003/1/4,1:00,4.9,0,50.0,0,15.1,0,55.8,0,11.3,0,10.7,0,8.5,0
2003/1/4,1:15,4.8,0,54.0,0,14.8,0,55.8,0,11.3,0,10.4,0,8.5,0
2003/1/4,1:30,4.8,0,54.0,0,14.5,0,55.3,0,11.3,0,10.1,0,8.4,0
2003/1/4,1:45,4.8,0,50.0,0,14.2,0,54.8,0,11.3,0,9.9,0,8.3,0
2003/1/4,2:00,4.6,0,54.0,0,13.9,0,54.9,0,11.3,0,9.7,0,8.2,0
2003/1/4,2:15,4.7,0,51.0,0,13.6,0,54.6,0,11.3,0,9.5,0,8.1,0
2003/1/4,2:30,4.6,0,51.0,0,13.3,0,54.5,0,11.3,0,9.3,0,8.1,0
2003/1/4,2:45,4.6,0,50.0,0,13.1,0,54.6,0,11.3,0,9.2,0,8.0,0
2003/1/4,3:00,4.1,0,64.0,0,12.8,0,54.9,0,11.3,0,9.1,0,7.9,0
2003/1/4,3:15,3.4,0,73.0,0,12.5,0,54.9,0,11.3,0,9.0,0,7.8,0
2003/1/4,3:30,3.4,0,72.0,0,12.2,0,55.2,0,11.3,0,8.8,0,7.7,0
2003/1/4,3:45,3.7,0,68.0,0,11.9,0,55.4,0,11.2,0,8.6,0,7.6,0
2003/1/4,4:00,3.4,0,70.0,0,11.7,0,55.3,0,11.2,0,8.4,0,7.5,0
2003/1/4,4:15,3.3,0,74.0,0,11.5,0,55.5,0,11.2,0,8.2,0,7.4,0
2003/1/4,4:30,2.9,0,77.0,0,11.3,0,55.5,0,11.2,0,8.0,0,7.3,0
2003/1/4,4:45,2.9,0,76.0,0,11.1,0,55.7,0,11.2,0,7.9,0,7.1,0
2003/1/4,5:00,2.5,0,76.0,0,10.9,0,55.8,0,11.2,0,7.7,0,7.0,0
2003/1/4,5:15,2.9,0,73.0,0,10.7,0,55.9,0,11.1,0,7.6,0,6.9,0
2003/1/4,5:30,2.6,0,75.0,0,10.5,0,56.1,0,11.1,0,7.5,0,6.8,0
2003/1/4,5:45,2.9,0,66.0,0,10.4,0,56.1,0,11.1,0,7.3,0,6.7,0
2003/1/4,6:00,3.2,0,61.0,0,10.2,0,56.2,0,11.1,0,7.2,0,6.7,0
2003/1/4,6:15,2.8,0,65.0,0,10.0,0,56.2,0,11.1,0,7.1,0,6.6,0
2003/1/4,6:30,3.1,0,57.0,0,9.9,0,56.2,0,11.0,0,7.0,0,6.5,0
2003/1/4,6:45,3.1,0,55.0,0,9.8,0,56.3,0,11.0,0,6.9,0,6.4,0
2003/1/4,7:00,3.1,0,55.0,0,9.6,0,56.3,0,11.0,0,6.8,0,6.4,0
2003/1/4,7:15,3.1,0,52.0,0,9.5,0,56.4,0,11.0,0,6.7,0,6.3,0
2003/1/4,7:30,3.2,0,49.0,0,9.4,0,56.4,0,11.0,0,6.6,0,6.3,0
2003/1/4,7:45,3.2,0,49.0,0,9.3,0,56.4,0,10.9,0,6.6,0,6.2,0
2003/1/4,8:00,3.2,0,48.0,0,9.2,0,56.4,0,10.9,0,6.5,0,6.2,0
2003/1/4,8:15,3.3,0,48.0,0,9.2,0,56.7,0,10.3,0,6.5,0,6.2,0
2003/1/4,8:30,3.5,0,48.0,0,9.2,0,56.9,0,10.2,0,6.5,0,6.1,0
2003/1/4,8:45,3.9,0,44.0,0,9.3,0,57.1,0,11.5,0,6.7,0,6.3,0
2003/1/4,9:00,4.4,0,47.0,0,9.7,0,57.4,0,11.4,0,7.2,0,7.0,0
2003/1/4,9:15,3.8,0,56.0,0,10.1,0,57.1,0,11.4,0,7.8,0,6.9,0
2003/1/4,9:30,4.5,0,48.0,0,10.5,0,56.1,0,11.4,0,8.1,0,6.7,0
2003/1/4,9:45,3.7,0,55.0,0,10.9,0,55.3,0,11.3,0,8.3,0,6.6,0
2003/1/4,10:00,4.0,0,56.0,0,11.0,0,54.2,0,11.3,0,8.2,0,6.6,0
2003/1/4,10:15,4.4,0,53.0,0,11.1,0,52.8,0,11.3,0,8.2,0,6.8,0
2003/1/4,10:30,4.7,0,52.0,0,11.2,0,53.5,0,11.2,0,8.3,0,7.0,0
2003/1/4,10:45,4.7,0,50.0,0,11.3,0,52.9,0,11.2,0,8.3,0,7.0,0
2003/1/4,11:00,4.6,0,51.0,0,11.2,0,52.6,0,11.1,0,8.2,0,7.0,0
2003/1/4,11:15,4.7,0,50.0,0,11.2,0,52.4,0,11.1,0,8.2,0,6.9,0
2003/1/4,11:30,4.5,0,52.0,0,11.2,0,52.1,0,11.1,0,8.2,0,7.0,0
2003/1/4,11:45,4.5,0,53.0,0,11.3,0,52.7,0,10.4,0,8.4,0,7.3,0
2003/1/4,12:00,4.4,0,55.0,0,11.7,0,49.0,0,10.4,0,8.5,0,7.1,0
2003/1/4,12:15,4.1,0,58.0,0,11.7,0,50.2,0,10.4,0,8.5,0,7.1,0
2003/1/4,12:30,4.3,0,56.0,0,11.6,0,50.5,0,10.4,0,8.5,0,7.0,0
2003/1/4,12:45,4.4,0,53.0,0,11.5,0,51.2,0,10.3,0,8.4,0,7.0,0
2003/1/4,13:00,4.5,0,54.0,0,11.4,0,50.7,0,10.3,0,8.4,0,7.0,0
2003/1/4,13:15,4.4,0,54.0,0,11.3,0,51.5,0,10.3,0,8.3,0,6.9,0
2003/1/4,13:30,4.2,0,53.0,0,11.2,0,51.1,0,10.3,0,8.2,0,6.9,0
2003/1/4,13:45,4.2,0,52.0,0,11.1,0,51.1,0,10.2,0,8.0,0,6.8,0
2003/1/4,14:00,4.2,0,49.0,0,11.0,0,51.9,0,10.2,0,8.0,0,6.8,0
2003/1/4,14:15,4.3,0,46.0,0,10.8,0,52.2,0,10.2,0,7.9,0,6.8,0
2003/1/4,14:30,4.4,0,45.0,0,10.7,0,50.0,0,10.9,0,8.0,0,6.8,0
2003/1/4,14:45,4.3,0,46.0,0,10.7,0,51.0,0,10.8,0,8.1,0,6.6,0
2003/1/4,15:00,4.0,0,46.0,0,10.7,0,52.1,0,10.8,0,8.1,0,6.6,0
2003/1/4,15:15,3.7,0,48.0,0,10.7,0,52.9,0,10.8,0,8.0,0,6.5,0
2003/1/4,15:30,3.6,0,51.0,0,10.6,0,53.3,0,10.4,0,7.9,0,6.4,0
2003/1/4,15:45,3.5,0,49.0,0,10.5,0,53.8,0,10.3,0,7.8,0,6.3,0
2003/1/4,16:00,3.5,0,51.0,0,10.5,0,54.3,0,10.3,0,7.7,0,6.2,0
2003/1/4,16:15,3.3,0,49.0,0,10.4,0,55.0,0,10.3,0,7.5,0,6.1,0
2003/1/4,16:30,3.3,0,48.0,0,10.4,0,55.4,0,10.3,0,7.4,0,6.1,0
2003/1/4,16:45,3.2,0,48.0,0,10.2,0,55.6,0,10.2,0,7.3,0,6.0,0
2003/1/4,17:00,3.0,0,48.0,0,10.1,0,56.0,0,10.2,0,7.2,0,5.9,0
2003/1/4,17:15,3.1,0,49.0,0,10.1,0,56.2,0,10.2,0,7.0,0,5.8,0
2003/1/4,17:30,2.9,0,46.0,0,10.0,0,57.7,0,10.2,0,7.1,0,5.7,0
2003/1/4,17:45,2.7,0,44.0,0,10.0,0,58.6,0,10.1,0,7.1,0,5.6,0
2003/1/4,18:00,2.7,0,44.0,0,9.9,0,58.4,0,10.1,0,7.0,0,5.5,0
2003/1/4,18:15,2.9,0,44.0,0,10.0,0,61.2,0,9.9,0,7.0,0,5.5,0
2003/1/4,18:30,2.7,0,43.0,0,10.6,0,62.0,0,9.8,0,7.8,0,5.3,0
2003/1/4,18:45,2.8,0,45.0,0,11.0,0,58.8,0,9.8,0,8.4,0,5.4,0
2003/1/4,19:00,2.7,0,45.0,0,11.4,0,56.7,0,9.8,0,8.8,0,5.4,0
2003/1/4,19:15,2.5,0,46.0,0,11.7,0,55.3,0,9.8,0,9.0,0,5.8,0
2003/1/4,19:30,2.3,0,46.0,0,12.1,0,54.9,0,9.8,0,9.3,0,5.4,0
2003/1/4,19:45,2.3,0,45.0,0,12.6,0,57.9,0,9.7,0,10.1,0,5.3,0
2003/1/4,20:00,2.3,0,45.0,0,13.2,0,59.8,0,9.7,0,11.0,0,5.4,0
2003/1/4,20:15,2.0,0,43.0,0,13.7,0,60.7,0,9.7,0,11.5,0,5.4,0
2003/1/4,20:30,1.9,0,42.0,0,13.9,0,57.3,0,9.7,0,10.9,0,5.2,0
2003/1/4,20:45,1.8,0,42.0,0,14.1,0,57.8,0,10.3,0,11.6,0,7.3,0
2003/1/4,21:00,1.4,0,57.0,0,14.2,0,55.6,0,10.3,0,11.2,0,6.9,0
2003/1/4,21:15,0.8,0,66.0,0,14.2,0,55.7,0,10.4,0,11.1,0,6.4,0
2003/1/4,21:30,0.6,0,67.0,0,13.7,0,55.9,0,10.7,0,10.3,0,6.5,0
2003/1/4,21:45,0.4,0,68.0,0,13.2,0,55.7,0,10.6,0,9.7,0,6.5,0
2003/1/4,22:00,0.0,0,78.0,0,12.7,0,55.9,0,10.6,0,9.2,0,6.4,0
2003/1/4,22:15,0.3,0,73.0,0,12.4,0,56.1,0,10.5,0,8.8,0,6.2,0
2003/1/4,22:30,0.3,0,67.0,0,12.1,0,56.6,0,10.5,0,8.6,0,5.9,0
2003/1/4,22:45,0.5,0,66.0,0,11.9,0,57.1,0,10.4,0,8.3,0,5.6,0
2003/1/4,23:00,1.1,0,57.0,0,11.7,0,58.2,0,10.4,0,8.2,0,5.4,0
2003/1/4,23:15,0.9,0,65.0,0,11.5,0,58.7,0,10.4,0,8.0,0,5.3,0